COSMOS 1892 (18421 NORAD) Tracking and Keplerian Element Data

This shows tracking and keplerian element data for the satellite.

Feedback or suggestion? Click here.




ElementValue
Catalog18421
NameCOSMOS 1892
Epoch Orbit98275
Epoch Day12.96915883
Epoch Year2024
RAAN55.916
Inclination82.493
Eccentricity0.0011821
Argument of Perigee183.0935
Mean Anonmoly177.0234
Mean Motion15.29554348
Decay Rate0.00012903
L11 18421U 87088A 24012.96915883 .00012903 00000+0 44833-3 0 9994
L22 18421 82.4930 55.9160 0011821 183.0935 177.0234 15.29554348982753



Live tracking and technical data element details for COSMOS 1892 (NORAD 18421). COSMOS 1892 can be tracked NOW for your location showing map with azimuth and elevation plus other details from your city location.







IsCatalogInMostPopularTable: catalog: 18421, numindb: 142
Update: records affected: 1



GetName: 18421 COSMOS 1892

Hit Count: updated at: Sun, 14 Apr 2024 22:42:03 GMT